Regional Weather Roundup
Issued by NWS

Home | Current Version | Previous Version | Graphics & Text | Print | Product List | Glossary On
Versions: 1 2 3 4 5 6 7 8 9 10 11 12 13 14 15 16 17 18 19 20 21 22 23 24 25 26 27 28 29 30 31 32 33 34 35 36 37 38 39 40 41 42 43 44 45 46 47 48 49 50
000
ASUS43 KLSX 211307
RWRMO

WEATHER SUMMARY FOR MISSOURI
NATIONAL WEATHER SERVICE SPRINGFIELD MO
700 AM CST WED FEB 21 2018

NOTE: "FAIR" INDICATES FEW OR NO CLOUDS BELOW 12,000 FEET WITH NO
       SIGNIFICANT WEATHER AND/OR OBSTRUCTIONS TO VISIBILITY.
       CURRENT SKY AND/OR WEATHER CONDITIONS ARE NOT AVAILABLE FOR
       CHILLICOTHE AND FARMINGTON.

MOZ001>031-035>038-043-044-053-054-211400-
...NORTHERN AND WESTERN MISSOURI...

CITY           SKY/WX    TMP DP  RH WIND       PRES   REMARKS
KANSAS CTY INT CLOUDY    14  10  84 N14       30.53F WCI  -1
KANSAS C DTWN  CLOUDY    18  11  74 N9        30.56R WCI   7
LEE`S SUMMIT   CLOUDY    17  14  88 N13       30.53R WCI   4
ST JOSEPH      MOCLDY    14  10  84 N10       30.60R WCI   1
CHILLICOTHE      N/A     18  13  80 N6        30.58R WCI  10
KIRKSVILLE     PTCLDY    18  15  88 N14       30.54R WCI   4

$$
MOZ066>068-077>081-088>096-101>105-211400-
...SOUTHWEST MISSOURI...

CITY           SKY/WX    TMP DP  RH WIND       PRES   REMARKS
SPRINGFIELD    CLOUDY    25  23  92 N15       30.41R WCI  13
JOPLIN         CLOUDY    24  21  88 NE13G23   30.44R WCI  12
BRANSON        CLOUDY    28  28 100 N6        30.40R FOG     WCI  22

$$
MOZ032>034-039>042-045>050-055>058-069>072-211400-
...CENTRAL MISSOURI...

CITY           SKY/WX    TMP DP  RH WIND       PRES   REMARKS
COLUMBIA       PTCLDY    24  20  84 N14       30.47S WCI  12
JEFFERSON CITY MOCLDY    26  20  77 N8        30.50R WCI  18
ROLLA          CLOUDY    25  23  92 N10       30.45R WCI  15
SEDALIA        CLOUDY    23  20  88 N16       30.51R WCI  10
WHITEMAN AFB   CLOUDY    20  16  83 N5        30.47R WCI  14
WARRENSBURG    MOCLDY    21  18  86 N7        30.53R WCI  13
OSAGE BEACH    CLOUDY    24  22  91 N5        30.46R WCI  18

$$
MOZ051-052-059>065-211400-
...EAST CENTRAL MISSOURI...

CITY           SKY/WX    TMP DP  RH WIND       PRES   REMARKS
ST LOUIS INTL  CLOUDY    28  25  88 NW12G17   30.47R WCI  18
SPIRIT OF STL  CLOUDY    28  24  85 NW14      30.48R WCI  17
ST CHARLES     MOCLDY    27  23  85 N10       30.48R WCI  17

$$
MOZ072>076-082>087-097>100-106>115-211400-
...SOUTH CENTRAL AND SOUTHEAST MISSOURI...

CITY           SKY/WX    TMP DP  RH WIND       PRES   REMARKS
CAPE GIRARDEAU MIX PCPN  36  32  85 N13       30.38R WCI  27
FARMINGTON     MIX PCPN  31  30  96 N8        30.41R WCI  23
POPLAR BLUFF   LGT RAIN  38  35  89 N13       30.39R WCI  30
WEST PLAINS    CLOUDY    32  30  92 N9        30.38R WCI  24

$$



USA.gov is the U.S. government's official web portal to all federal, state and local government web resources and services.